EW3683 Weather Reports


time (UTC)temp
F
wind
direction
speed
knots
gust
knots
rain 1hr
in
rain 24hr
in
rain mn
in
humidity
%
barometer
mb
20260506214517 62 53 0.9 5.2 0.00 0.00 0.00 66 1021.4
20260506213008 62 174 0.9 3.5 0.00 0.00 0.00 67 1021.4
20260506211504 60 345 0.0 5.2 0.00 0.00 0.00 70 1021.4
20260506210100 59 338 1.7 5.2 0.00 0.00 0.00 70 1021.3
20260506204557 59 20 0.9 4.3 0.00 0.00 0.00 72 1021.2
20260506203058 59 42 0.9 3.5 0.00 0.00 0.00 72 1021.2
20260506201554 59 57 0.9 5.2 0.00 0.00 0.00 72 1021.2
20260506200052 58 5 0.9 4.3 0.00 0.00 0.00 73 1021.2
20260506194550 58 169 0.0 2.6 0.00 0.00 0.00 75 1021.3
20260506193051 58 16 0.0 4.3 0.00 0.00 0.00 76 1021.2
20260506191547 58 336 0.0 3.5 0.00 0.00 0.00 78 1021.0
20260506190044 57 28 0.9 4.3 0.00 0.00 0.00 80 1021.0
20260506184550 57 51 0.0 2.6 0.00 0.00 0.00 81 1021.2
20260506183052 56 5 0.0 2.6 0.00 0.00 0.00 81 1021.1
20260506181608 56 355 0.0 2.6 0.00 0.00 0.00 82 1021.1
20260506180038 55 18 0.0 1.7 0.00 0.00 0.00 82 1021.1
20260506174540 55 11 0.0 2.6 0.00 0.00 0.00 81 1021.1
20260506173053 55 355 0.0 1.7 0.00 0.00 0.00 83 1020.9
20260506171534 55 348 0.9 2.6 0.00 0.00 0.00 82 1020.8
20260506170035 55 21 0.0 2.6 0.00 0.00 0.00 84 1020.7
20260506164537 54 30 0.0 2.6 0.00 0.00 0.00 86 1020.5
20260506163035 54 10 0.0 1.7 0.00 0.00 0.00 86 1020.7
20260506161530 54 5 0.0 1.7 0.00 0.00 0.00 86 1020.7
20260506160030 53 15 0.0 1.7 0.00 0.00 0.00 87 1020.7
20260506154527 53 355 0.0 1.7 0.00 0.00 0.00 87 1020.5
20260506153026 53 26 0.0 1.7 0.00 0.00 0.00 87 1020.5
20260506151526 53 351 0.0 2.6 0.00 0.00 0.00 87 1020.4
20260506150027 53 98 0.0 1.7 0.00 0.00 0.00 88 1019.7
20260506144526 52 82 0.0 1.7 0.00 0.00 0.00 88 1020.0
20260506143028 52 57 0.0 2.6 0.00 0.00 0.00 88 1020.4
20260506141523 52 34 0.0 1.7 0.00 0.00 0.00 89 1020.5
20260506140024 52 36 0.0 1.7 0.00 0.00 0.00 89 1020.2
20260506134520 52 45 0.0 0.9 0.00 0.00 0.00 89 1020.4
20260506133018 52 62 0.0 0.9 0.00 0.00 0.00 90 1019.8
20260506131524 52 53 0.0 0.9 0.00 0.00 0.00 90 1019.9
20260506130114 52 53 0.0 0.9 0.00 0.00 0.00 91 1019.6
20260506124512 52 324 0.0 0.9 0.00 0.00 0.00 91 1019.6
20260506123011 53 307 0.0 0.0 0.00 0.00 0.00 92 1019.3
20260506121510 53 290 0.0 0.9 0.00 0.00 0.00 93 1019.2
20260506120016 53 290 0.0 0.0 0.00 0.00 0.00 93 1019.2
20260506114517 53 290 0.0 0.9 0.00 0.01 0.00 93 1019.2
20260506113018 53 290 0.0 0.0 0.00 0.01 0.00 93 1019.1
20260506111505 53 290 0.0 0.0 0.00 0.01 0.00 93 1019.1
20260506110003 53 290 0.0 0.0 0.00 0.01 0.00 92 1019.0
20260506104501 53 290 0.0 0.0 0.00 0.01 0.00 92 1018.8
20260506103100 53 290 0.0 0.0 0.00 0.01 0.00 91 1018.7
20260506101558 54 290 0.0 0.9 0.00 0.01 0.00 90 1018.6
20260506100056 54 290 0.0 0.0 0.00 0.01 0.00 88 1018.6
20260506094554 54 290 0.0 0.9 0.00 0.01 0.00 87 1018.5
20260506093052 55 290 0.0 0.0 0.00 0.01 0.00 86 1018.3
20260506091555 55 290 0.0 0.0 0.00 0.01 0.00 86 1018.2
20260506090057 55 290 0.0 0.0 0.00 0.01 0.00 85 1018.3
20260506084551 55 290 0.0 0.0 0.00 0.01 0.00 85 1018.2
20260506083047 55 290 0.0 0.0 0.00 0.01 0.00 85 1018.0
20260506081545 55 290 0.0 0.0 0.00 0.01 0.00 84 1017.9
20260506073040 56 290 0.0 0.9 0.00 0.01 0.00 84 1017.6
20260506071538 56 257 0.0 0.9 0.00 0.01 0.00 84 1017.4
20260506061531 57 228 0.0 0.0 0.00 0.01 0.01 82 1017.1
20260506044526 58 180 0.0 0.9 0.00 0.01 0.01 84 1016.7
20260506043025 58 171 0.0 0.0 0.00 0.01 0.01 84 1016.6
20260506041524 59 171 0.0 0.9 0.00 0.01 0.01 84 1016.3
20260506040025 59 331 0.0 1.7 0.00 0.01 0.01 83 1016.1
20260506034529 59 331 0.0 0.0 0.00 0.01 0.01 83 1015.9
20260506033023 59 331 0.0 0.0 0.00 0.01 0.01 82 1015.7
20260506031523 59 331 0.0 0.9 0.00 0.01 0.01 81 1015.5
20260506030034 60 331 0.0 0.0 0.00 0.01 0.01 79 1015.3
20260506024545 61 331 0.0 0.0 0.00 0.01 0.01 77 1015.2
20260506023021 61 331 0.0 0.9 0.00 0.01 0.01 76 1015.1
20260506021521 62 325 0.0 0.9 0.00 0.01 0.01 75 1015.1
20260506020020 62 334 0.0 1.7 0.00 0.01 0.01 73 1015.1
20260506014520 62 254 0.0 1.7 0.00 0.01 0.01 72 1015.1
20260506013033 62 169 0.0 0.9 0.00 0.01 0.01 72 1015.1
20260506011518 63 282 0.0 2.6 0.00 0.01 0.01 71 1015.1
20260506010023 63 182 0.0 1.7 0.00 0.01 0.01 71 1015.1
20260506004517 63 341 0.0 2.6 0.00 0.01 0.01 70 1015.2
20260506003018 63 65 0.0 3.5 0.00 0.01 0.01 72 1015.3
20260506001520 63 196 0.9 2.6 0.00 0.01 0.01 70 1015.4
20260506000015 63 343 0.0 2.6 0.00 0.01 0.01 70 1015.5
20260505234515 63 182 0.0 2.6 0.00 0.01 0.01 70 1015.6
20260505233019 63 337 0.9 2.6 0.00 0.01 0.01 71 1015.5
20260505231514 63 15 0.9 2.6 0.00 0.01 0.01 70 1015.7
20260505230032 63 348 0.9 2.6 0.00 0.01 0.01 69 1015.9
20260505224512 63 344 0.0 2.6 0.00 0.01 0.01 70 1015.9
20260505223011 63 5 1.7 3.5 0.00 0.01 0.01 70 1016.1
20260505221509 62 5 0.0 3.5 0.00 0.01 0.01 71 1016.1
20260505220007 62 347 0.9 2.6 0.00 0.01 0.01 72 1016.2